Regional Weather Roundup
Issued by NWS

Home | Current Version | Previous Version | Text Only | Print | Product List | Glossary On
Versions: 1 2 3 4 5 6 7 8 9 10 11 12 13 14 15 16 17 18 19 20 21 22 23 24 25 26 27 28 29 30 31 32 33 34 35 36 37 38 39 40 41 42 43 44 45 46 47 48 49 50
000
ASUS45 KCYS 051310
RWRWY

WYOMING REGIONAL WEATHER ROUNDUP
NATIONAL WEATHER SERVICE CHEYENNE WY
700 AM MDT TUE MAY 05 2015

NOTE:  "FAIR" INDICATES FEW OR NO CLOUDS BELOW 12,000 FEET
WITH NO SIGNIFICANT WEATHER AND/OR OBSTRUCTIONS TO VISIBILITY.

WYZ001-051400-
YELLOWSTONE NATIONAL PARK

CITY           SKY/WX    TMP DP  RH WIND       PRES   REMARKS
LK YELLOWSTONE   N/A     29  26  89 CALM      30.03S
W YELLOWSTONE  NOT AVBL

$$
WYZ002>013-054>058-071-098>099-051400-
NORTHERN WYOMING

CITY           SKY/WX    TMP DP  RH WIND       PRES   REMARKS
JACKSON        PTCLDY    37  34  87 VRB5      29.96F WCI  34
CODY           FAIR      48  37  66 SW3       29.88S
GREYBULL       FAIR      51  40  65 CALM      29.84S
WORLAND        FAIR      51  42  71 S7        29.85S
SHERIDAN       FAIR      44  40  85 CALM      29.87R
BUFFALO        FAIR      45  42  89 CALM      29.90S
GILLETTE       FAIR      45  40  82 S21G31    29.93S
HULETT         FAIR      52  41  66 SW7       29.95S
NEWCASTLE      CLOUDY    46  41  81 SE15      30.00F

$$
WYZ014>020-022>026-101>103-051400-
CENTRAL WYOMING

CITY           SKY/WX    TMP DP  RH WIND       PRES   REMARKS
BIG PINEY      FAIR      37  34  89 CALM      29.98S
PINEDALE       FAIR      36  34  93 NW7       29.98S WCI  30
DUBOIS         FAIR      36  32  87 W10       29.97S WCI  28
LANDER         FAIR      46  39  76 SE3       29.90S
RIVERTON       FAIR      47  40  76 CALM      29.92S
CASPER         FOG       41  40  96 E7        29.95S VSB<1/4
DOUGLAS        CLOUDY    46  44  93 SE14      29.97F FOG

$$
WYZ021-027>030-104>119-051400-
SOUTHERN WYOMING

CITY           SKY/WX    TMP DP  RH WIND       PRES   REMARKS
EVANSTON       CLOUDY    42  35  76 N3        29.96S
KEMMERER       FAIR      37  36  93 NW6       29.98R WCI  33
FORT BRIDGER   SUNNY     41  41 100 CALM      30.00R
ROCK SPRINGS   FAIR      41  36  82 CALM      29.97R
DIXON          FAIR      38  35  86 E3        29.98S
RAWLINS        CLOUDY    41  40  96 NE3       29.98S FOG
SARATOGA       FAIR      34  34 100 CALM      29.98S
LARAMIE        FAIR      41  39  93 SE20      29.98F
CHEYENNE       FOG       43  43 100 S13       30.00S VSB 1/4
TORRINGTON     CLOUDY    46  44  93 SE8       29.99S
PINE BLUFFS    CLOUDY    43  43 100 SE8       30.01F FOG

$$


USA.gov is the U.S. government's official web portal to all federal, state and local government web resources and services.